When you browse on this site, cookies collect data to enhance your experience and personalize the content and advertising you see.
Visit our Privacy Policy to learn more. By continuing to use the site, you agree to this use of cookies and data.
  • In Spain
  • List of Countries
  • For 7 days
  • Water Temperature
  • Weather Map
  • Weather Widgets
  • user-avatar
    Login

    Hourly Weather Malanje

    Today, 22 August, Thursday

    Time Temperature Precipitation Wind Pressure Humidity
    00:00 +19°C° 0 mm 1 mps 665 mmHg 43%
    01:00 +18°C° 0 mm 1 mps 665 mmHg 55%
    02:00 +16°C° 0 mm 1 mps 665 mmHg 65%
    03:00 +15°C° 0 mm 1 mps 665 mmHg 75%
    04:00 +14°C° 0 mm 1 mps 665 mmHg 84%
    05:00 +15°C° 0 mm 1 mps 665 mmHg 74%
    06:00 +16°C° 0 mm 1 mps 666 mmHg 64%
    07:00 +16°C° 0 mm 2 mps 667 mmHg 53%
    08:00 +20°C° 0 mm 2 mps 667 mmHg 41%
    09:00 +25°C° 0 mm 3 mps 668 mmHg 29%
    10:00 +29°C° 0 mm 4 mps 668 mmHg 17%
    11:00 +31°C° 0 mm 3 mps 668 mmHg 14%
    12:00 +35°C° 0 mm 3 mps 668 mmHg 12%
    13:00 +37°C° 0 mm 2 mps 667 mmHg 10%
    14:00 +37°C° 0 mm 2 mps 667 mmHg 9%
    15:00 +37°C° 0 mm 2 mps 666 mmHg 9%
    16:00 +37°C° 0 mm 2 mps 666 mmHg 9%
    17:00 +32°C° 0 mm 1 mps 665 mmHg 12%
    18:00 +28°C° 0 mm 1 mps 665 mmHg 14%
    19:00 +25°C° 0 mm 1 mps 665 mmHg 17%
    20:00 +24°C° 0 mm 1 mps 665 mmHg 22%
    21:00 +23°C° 0 mm 1 mps 665 mmHg 26%
    22:00 +21°C° 0 mm 2 mps 665 mmHg 31%
    23:00 +19°C° 0 mm 2 mps 665 mmHg 47%

    Tomorrow, 23 August, Friday

    Time Temperature Precipitation Wind Pressure Humidity
    00:00 +18°C° 0 mm 1 mps 665 mmHg 63%
    01:00 +16°C° 0 mm 1 mps 665 mmHg 78%
    02:00 +15°C° 0 mm 1 mps 665 mmHg 83%
    03:00 +15°C° 0 mm 1 mps 665 mmHg 87%
    04:00 +14°C° 0 mm 1 mps 665 mmHg 91%
    05:00 +15°C° 0 mm 1 mps 666 mmHg 81%
    06:00 +16°C° 0 mm 1 mps 666 mmHg 72%
    07:00 +18°C° 0 mm 1 mps 667 mmHg 62%
    08:00 +21°C° 0 mm 2 mps 668 mmHg 47%
    09:00 +26°C° 0 mm 3 mps 668 mmHg 31%
    10:00 +29°C° 0 mm 4 mps 669 mmHg 16%
    11:00 +31°C° 0 mm 3 mps 669 mmHg 14%
    12:00 +34°C° 0 mm 3 mps 668 mmHg 13%
    13:00 +36°C° 0 mm 2 mps 668 mmHg 12%
    14:00 +36°C° 0 mm 2 mps 667 mmHg 11%
    15:00 +36°C° 0 mm 2 mps 666 mmHg 11%
    16:00 +36°C° 0 mm 2 mps 666 mmHg 11%
    17:00 +31°C° 0 mm 1 mps 665 mmHg 14%
    18:00 +28°C° 0 mm 1 mps 665 mmHg 17%
    19:00 +25°C° 0 mm 1 mps 665 mmHg 20%
    20:00 +24°C° 0 mm 1 mps 665 mmHg 26%
    21:00 +23°C° 0 mm 2 mps 665 mmHg 31%
    22:00 +20°C° 0 mm 2 mps 666 mmHg 37%
    23:00 +19°C° 0 mm 2 mps 665 mmHg 53%

    Day after tomorrow, 24 August, Saturday

    Time Temperature Precipitation Wind Pressure Humidity
    00:00 +17°C° 0 mm 2 mps 665 mmHg 69%
    01:00 +15°C° 0 mm 2 mps 665 mmHg 85%
    02:00 +15°C° 0 mm 2 mps 665 mmHg 89%
    03:00 +14°C° 0 mm 1 mps 665 mmHg 92%
    04:00 +13°C° 0 mm 1 mps 665 mmHg 96%
    05:00 +14°C° 0 mm 1 mps 665 mmHg 92%
    06:00 +15°C° 0 mm 1 mps 666 mmHg 87%
    07:00 +15°C° 0 mm 1 mps 667 mmHg 82%
    08:00 +21°C° 0 mm 1 mps 667 mmHg 60%
    09:00 +25°C° 0 mm 2 mps 668 mmHg 38%
    10:00 +29°C° 0 mm 3 mps 669 mmHg 15%
    11:00 +32°C° 0 mm 2 mps 669 mmHg 14%
    12:00 +35°C° 0 mm 2 mps 668 mmHg 12%
    13:00 +37°C° 0 mm 2 mps 668 mmHg 10%
    14:00 +37°C° 0 mm 2 mps 667 mmHg 10%
    15:00 +36°C° 0 mm 2 mps 666 mmHg 10%
    16:00 +35°C° 0 mm 1 mps 666 mmHg 9%
    17:00 +32°C° 0 mm 1 mps 665 mmHg 12%
    18:00 +28°C° 0 mm 1 mps 665 mmHg 15%
    19:00 +25°C° 0 mm 1 mps 665 mmHg 18%
    20:00 +24°C° 0 mm 1 mps 665 mmHg 27%
    21:00 +21°C° 0 mm 2 mps 665 mmHg 35%
    22:00 +20°C° 0 mm 2 mps 666 mmHg 44%
    23:00 +19°C° 0 mm 2 mps 665 mmHg 54%

    25 August, Sunday

    Time Temperature Precipitation Wind Pressure Humidity
    00:00 +17°C° 0 mm 2 mps 665 mmHg 64%
    01:00 +16°C° 0 mm 2 mps 665 mmHg 74%
    02:00 +15°C° 0 mm 2 mps 665 mmHg 81%
    03:00 +14°C° 0 mm 1 mps 665 mmHg 88%
    04:00 +14°C° 0 mm 1 mps 664 mmHg 95%
    05:00 +14°C° 0 mm 1 mps 665 mmHg 91%
    06:00 +15°C° 0 mm 1 mps 666 mmHg 87%
    07:00 +16°C° 0 mm 1 mps 666 mmHg 83%
    08:00 +21°C° 0 mm 1 mps 667 mmHg 61%
    09:00 +26°C° 0 mm 2 mps 668 mmHg 38%
    10:00 +30°C° 0 mm 2 mps 669 mmHg 16%
    11:00 +32°C° 0 mm 2 mps 668 mmHg 14%
    12:00 +34°C° 0 mm 3 mps 668 mmHg 13%
    13:00 +36°C° 0 mm 3 mps 667 mmHg 11%
    14:00 +36°C° 0 mm 3 mps 667 mmHg 11%
    15:00 +35°C° 0 mm 3 mps 666 mmHg 12%
    16:00 +35°C° 0 mm 3 mps 665 mmHg 12%
    17:00 +31°C° 0 mm 2 mps 665 mmHg 14%
    18:00 +28°C° 0 mm 2 mps 665 mmHg 16%
    19:00 +25°C° 0 mm 2 mps 665 mmHg 19%
    20:00 +24°C° 0 mm 2 mps 665 mmHg 24%
    21:00 +23°C° 0 mm 2 mps 666 mmHg 30%
    22:00 +21°C° 0 mm 3 mps 666 mmHg 36%
    23:00 +20°C° 0 mm 3 mps 666 mmHg 51%

    26 August, Monday

    Time Temperature Precipitation Wind Pressure Humidity
    00:00 +18°C° 0 mm 3 mps 665 mmHg 65%
    01:00 +17°C° 0 mm 2 mps 665 mmHg 80%
    02:00 +16°C° 0 mm 2 mps 665 mmHg 84%
    03:00 +15°C° 0 mm 2 mps 665 mmHg 89%
    04:00 +14°C° 0 mm 2 mps 665 mmHg 94%
    05:00 +15°C° 0 mm 2 mps 666 mmHg 89%
    06:00 +16°C° 0 mm 2 mps 666 mmHg 85%
    07:00 +16°C° 0 mm 1 mps 667 mmHg 80%
    08:00 +20°C° 0 mm 2 mps 668 mmHg 64%
    09:00 +26°C° 0 mm 2 mps 669 mmHg 47%
    10:00 +30°C° 0 mm 2 mps 669 mmHg 30%
    11:00 +32°C° 0 mm 2 mps 669 mmHg 25%
    12:00 +35°C° 0 mm 2 mps 669 mmHg 21%
    13:00 +37°C° 0 mm 1 mps 668 mmHg 16%
    14:00 +35°C° 0 mm 1 mps 667 mmHg 17%
    15:00 +35°C° 0 mm 2 mps 667 mmHg 18%
    16:00 +34°C° 0 mm 2 mps 666 mmHg 19%
    17:00 +30°C° 0 mm 2 mps 666 mmHg 23%
    18:00 +28°C° 0 mm 2 mps 666 mmHg 26%
    19:00 +26°C° 0 mm 2 mps 666 mmHg 30%
    20:00 +24°C° 0 mm 2 mps 666 mmHg 34%
    21:00 +23°C° 0 mm 2 mps 666 mmHg 38%
    22:00 +21°C° 0 mm 2 mps 666 mmHg 43%
    23:00 +20°C° 0 mm 2 mps 666 mmHg 51%

    27 August, Tuesday

    Time Temperature Precipitation Wind Pressure Humidity
    00:00 +19°C° 0 mm 2 mps 666 mmHg 60%
    01:00 +17°C° 0 mm 2 mps 666 mmHg 68%
    02:00 +17°C° 0 mm 2 mps 666 mmHg 74%
    03:00 +16°C° 0 mm 2 mps 665 mmHg 79%
    04:00 +15°C° 0 mm 2 mps 665 mmHg 85%
    05:00 +16°C° 0 mm 2 mps 666 mmHg 78%
    06:00 +16°C° 0 mm 2 mps 666 mmHg 71%
    07:00 +17°C° 0 mm 2 mps 667 mmHg 65%
    08:00 +21°C° 0 mm 2 mps 668 mmHg 52%
    09:00 +26°C° 0 mm 2 mps 669 mmHg 39%
    10:00 +30°C° 0 mm 2 mps 670 mmHg 25%
    11:00 +31°C° 0 mm 2 mps 669 mmHg 23%
    12:00 +34°C° 0 mm 2 mps 669 mmHg 20%
    13:00 +36°C° 0 mm 2 mps 668 mmHg 17%
    14:00 +36°C° 0 mm 2 mps 668 mmHg 17%
    15:00 +35°C° 0 mm 2 mps 667 mmHg 17%
    16:00 +35°C° 0 mm 3 mps 666 mmHg 16%
    17:00 +31°C° 0 mm 3 mps 666 mmHg 20%
    18:00 +29°C° 0 mm 3 mps 666 mmHg 25%
    19:00 +26°C° 0 mm 4 mps 666 mmHg 29%
    20:00 +24°C° 0 mm 3 mps 666 mmHg 34%
    21:00 +23°C° 0 mm 2 mps 666 mmHg 39%
    22:00 +20°C° 0 mm 2 mps 666 mmHg 44%
    23:00 +19°C° 0 mm 2 mps 665 mmHg 52%
    Show more